EHI
0 0 0 0 0 0 0 0 0 0 0 0 0 0 0 0 0 0 0 0 0 0 0 0 0 0 0 0 0 0 0 0 0 0 0 0 0 0
0 0 0 0 0 0 0 0 0 0 0 0 0 0 0 0 0 0 0 0 0 0 0 0 0 0 0 0 0 0 0 0 0 0 0 0 0 0
0 0 0 0 0 0 0 0 0 0 0 0 0 0 0 0 0 0 0 0 0 0 0 0 0 0 0 0 0 0 0 0 0 0 0 0 0 0
0 0 0 0 0 0 0 0 0 0 0 0 0 0 0 0 0 0 0 0 0 0 0 0 0 0 0 0 0 0 0 0 0 0 0 0 0 0
0 0 0 0 0 0 0 0 0 0 0 0 0 0 0 0 0 0 0 0 0 0 0 0 0 0 0 0 0 0 0 0 0 0 0 0 0 0
0 0 0 0 0 0 0 0 0 0 0 0 0 0 0 0 0 0 0 0 0 0 0 0 0 0 0 0 0 0 0 0 0 0 0 0 0 0
0 0 0 0 0 0 0 0 0 0 0 0 0 0 0 0 0 0 0 0 0 0 0 0 0 0 0 0 0 0 0 0 0 0 0 0 0 0
0 0 0 0 0 0 0 0 0 0 0 0 0 0 0 0 0 0 0 0 0 0 0 0 0 0 0 0 0 0 0 0 0 0 0 0 0 0
0 0 0 0 0 0 0 0 0 0 0 0 0 0 0 0 0 0 0 0 0 0 0 0 0 0 0 0 0 0 0 0 0 0 0 0 0 0
0 0 0 0 0 0 0 0 0 0 0 0 0 0 0 0 0 0 0 0 0 0 0 0 0 0 0 0 0 0 0 0 0 0 0 0 0 0
0 0 0 0 0 0 0 0 0 0 0 0 0 0 0 0 0 0 0 0 0 0 0 0 0 0 0 0 0 0 0 0 0 0 0 0 0 0
0 0 0 0 0 0 0 0 0 0 0 0 0 0 0 0 0 0 0 0 0 0 0 0 0 0 0 0 0 0 0 0 0 0 0 0 0 0
0 0 0 0 0 0 0 0 0 0 0 0 0 0 0 0 0 0 0 0 0 0 0 0 0 0 0 0 0 0 0 0 0 0 0 0 0 0
0 0 0 0 0 0 0 0 0 0 0 0 0 0 0 0 0 0 0 0 0 0 0 0 0 0 0 0 0 0 0 0 0 0 0 0 0 0
0 0 0 0 0 0 0 0 0 0 0 0 0 0 0 0 0 0 0 0 0 0 0 0 0 0 0 0 0 0 0 0 0 0 0 0 0 0
0 0 0 0 0 0 0 0 0 0 0 0 0 0 0 0 0 0 0 0 0 0 0 0 0 0 0 0 0 0 0 0 0 0 0 0 0 0
0 0 0 0 0 0 0 0 0 0 0 0 0 0 0 0 0 0 0 0 0 0 0 0 0 0 0 0 0 0 0 0 0 0 0 0 0 0
0 0 0 0 0 0 0 0 0 0 0 0 0 0 0 0 0 0 0 0 0 0 0 0 0 0 0 0 0 0 0 0 0 0 0 0 0 0
0 0 0 0 0 0 0 0 0 0 0 0 0 0 0 0 0 0 0 0 0 0 0 0 0 0 0 0 0 0 0 0 0 0 0 0 0 0
0 0 0 0 0 0 0 0 0 0 0 0 0 0 0 0 0 0 0 0 0 0 0 0 0 0 0 0 0 0 0 0 0 0 0 0 0 0
0 0 0 0 0 0 0 0 0 0 0 0 0 0 0 0 0 0 0 0 0 0 0 0 0 0 0 0 0 0 0 0 0 0 0 0 0 0
0 0 0 0 0 0 0 0 0 0 0 0 0 0 0 0 0 0 0 0 0 0 0 0 0 0 0 0 0 0 0 0 0 0 0 0 0 0
0 0 0 0 0 0 0 0 0 0 0 0 0 0 0 0 0 0 0 0 0 0 0 0 0 0 0 0 0 0 0 0 0 0 0 0 0 0
Wind_Speed
5 5 4 3 3 3 3 4 6 7 6 2 3 3 5 6 5 9 11 9 10 14 15 15 15 16 17 17 18 18 19 19 20 21 21 22 22 23
4 5 5 4 4 3 4 4 5 7 8 6 5 7 7 9 8 10 11 11 15 16 14 13 14 16 17 18 18 19 19 20 20 21 21 22 22 23
5 5 5 6 5 5 4 4 5 5 8 8 7 7 8 10 10 10 11 11 9 8 9 12 14 16 17 17 18 18 18 19 20 20 21 22 22 23
6 6 6 5 5 5 5 6 5 5 8 10 9 9 10 10 10 11 10 9 10 7 8 12 15 15 15 16 16 16 16 17 18 19 20 21 22 22
6 6 6 6 7 6 7 7 6 6 7 9 10 8 9 8 10 10 11 9 11 9 8 13 13 13 14 15 15 15 14 14 16 17 18 19 20 21
6 6 6 7 8 8 7 7 7 8 8 8 9 9 8 9 8 8 9 8 9 10 10 9 10 13 16 16 16 15 13 12 13 14 16 17 18 19
6 6 6 6 7 8 9 10 10 9 8 8 9 9 8 8 8 8 9 9 10 8 8 9 8 8 8 10 12 9 9 10 11 13 14 15 16 17
7 7 6 4 5 7 8 10 11 11 11 10 9 9 10 10 8 8 9 9 8 7 9 10 8 8 8 6 1 2 7 10 11 12 13 13 14 15
7 8 7 6 7 9 9 10 11 12 12 11 11 11 11 10 11 11 9 10 10 9 9 10 8 8 8 4 2 5 8 10 11 12 12 13 13 14
7 7 8 8 8 10 12 11 10 7 6 8 9 10 10 10 10 10 10 10 11 8 6 8 8 8 9 6 3 6 8 10 10 11 12 12 12 13
6 6 7 8 7 10 11 11 10 8 5 8 10 12 12 13 11 9 8 8 8 8 5 6 7 9 9 7 4 5 8 9 10 11 11 11 12 12
6 5 2 5 9 10 10 10 10 10 10 8 7 8 9 9 11 9 8 8 8 7 5 6 7 7 6 6 8 6 5 5 8 9 9 10 10 9
7 6 5 7 10 11 11 9 9 11 11 9 7 6 5 4 3 4 5 6 7 7 6 6 6 6 5 6 8 7 7 7 7 6 5 6 7 8
6 7 7 10 12 12 9 7 11 11 7 6 6 6 5 5 5 5 6 6 6 8 8 7 6 7 7 7 6 7 8 7 7 7 7 5 5 5
6 7 10 12 12 8 5 9 10 6 6 6 7 6 6 6 6 5 5 6 6 5 5 6 6 7 6 6 6 7 7 7 6 7 6 6 5 5
6 5 7 9 8 5 5 4 5 6 7 7 7 6 6 5 5 5 6 6 5 4 4 5 5 6 6 7 6 7 8 6 7 8 7 5 5 5
10 6 5 6 6 6 6 6 6 6 6 7 7 7 6 6 5 5 5 6 6 7 7 6 6 4 4 6 7 8 8 7 7 7 6 5 5 5
9 5 6 7 7 7 7 8 7 7 8 8 7 7 7 7 7 6 6 6 6 6 7 7 8 6 4 3 4 8 7 7 7 7 6 5 5 5
5 6 6 7 8 8 8 8 8 8 8 8 8 8 8 7 7 7 7 7 7 7 7 7 7 7 7 6 4 5 8 8 8 7 6 5 5 6
6 7 7 7 8 8 8 8 8 8 8 8 8 8 8 8 8 7 7 9 7 7 7 7 8 7 6 6 5 5 7 9 8 8 8 5 5 5
7 7 7 7 8 8 8 8 9 8 10 9 8 9 9 8 8 8 7 6 6 7 7 7 6 3 4 5 5 6 6 6 7 7 9 7 7 7
7 7 7 8 8 8 8 9 9 9 10 9 9 9 9 9 9 9 9 8 7 8 7 6 6 5 6 7 7 7 7 5 5 6 8 8 6 7
7 8 7 8 8 8 9 10 11 10 10 10 9 9 9 9 8 8 8 8 8 9 8 7 7 7 7 7 7 8 9 8 6 6 7 6 5 5
Wind_Direction
41 36 18 19 353 343 328 317 310 304 296 287 289 310 313 309 317 299 300 302 298 290 287 288 289 289 288 287 286 286 285 284 283 282 281 280 278 277
26 24 2 358 348 328 325 317 311 306 304 314 314 315 323 307 301 299 294 287 264 260 266 277 284 287 286 285 285 285 285 284 283 282 282 281 280 279
13 11 4 351 336 326 320 310 306 306 300 304 306 305 303 301 306 304 298 294 290 249 251 272 280 282 283 284 284 284 284 284 284 283 283 281 280 279
12 1 352 342 330 316 319 312 311 308 295 303 305 305 306 302 302 301 299 301 302 287 250 262 270 274 277 278 280 281 281 281 282 282 281 280 278 278
5 354 347 339 329 333 319 314 310 302 298 297 300 306 303 307 308 302 305 307 301 301 264 252 255 260 265 268 271 272 272 274 277 279 280 279 278 278
360 349 343 340 338 331 316 316 315 311 306 299 300 305 307 312 312 311 312 315 312 310 305 293 273 253 254 255 258 262 265 269 273 277 278 278 277 275
354 347 348 345 340 327 324 327 319 311 307 304 304 306 311 319 318 317 312 313 310 307 310 305 301 294 287 262 252 259 272 279 281 281 279 276 274 272
349 342 331 314 336 292 285 293 298 299 305 304 303 306 308 312 315 312 311 311 310 315 312 308 306 305 302 299 321 276 281 285 286 286 284 280 276 271
343 337 334 348 323 332 316 287 272 256 257 281 293 298 307 316 316 311 311 309 306 309 307 306 311 311 308 313 203 264 277 283 287 288 288 285 281 275
340 336 333 335 2 341 319 312 311 307 281 271 287 296 303 312 310 302 299 297 295 297 309 306 315 319 316 312 234 242 263 274 281 287 289 287 284 279
339 343 338 336 10 331 311 312 317 320 280 247 262 273 279 278 279 291 297 301 310 318 330 313 318 321 314 312 309 247 263 270 277 284 289 292 292 287
344 350 36 345 335 320 313 314 321 329 327 318 282 262 263 258 239 257 289 304 313 315 335 326 319 327 315 319 327 326 319 296 279 280 286 293 300 298
342 348 10 356 326 315 303 305 321 314 308 311 314 315 316 314 301 291 298 299 307 309 322 325 311 314 301 307 318 332 339 336 329 320 300 290 295 304
335 345 351 334 316 305 305 319 306 295 299 318 325 332 340 342 340 326 315 301 287 290 301 305 297 304 307 310 316 327 332 333 332 331 330 319 297 285
333 325 306 299 298 292 273 289 295 308 334 337 338 339 336 335 325 320 321 314 306 301 309 311 308 309 313 316 322 329 329 327 332 333 331 337 340 336
332 312 278 269 277 311 317 316 325 346 341 334 333 333 332 333 336 337 335 335 335 342 345 334 326 324 331 340 344 344 341 334 336 339 339 344 353 351
324 320 350 360 3 8 3 358 352 350 345 343 339 341 345 347 348 348 343 341 348 353 360 1 356 352 355 358 354 349 341 341 342 342 340 345 359 3
310 354 6 2 1 1 358 355 354 354 347 343 343 346 348 350 352 355 358 360 -0 4 6 5 2 3 16 61 22 351 347 344 344 346 348 346 355 5
324 12 7 3 359 358 356 354 351 351 346 347 351 351 348 350 355 357 5 5 4 9 16 16 14 7 2 8 24 16 353 350 349 356 355 352 357 3
18 12 6 2 359 356 353 352 350 348 352 351 355 354 353 352 355 359 7 7 2 8 18 22 19 8 359 356 356 16 22 10 2 360 355 357 18 15
10 6 2 358 357 356 352 352 350 349 354 350 356 356 356 356 358 0 6 7 357 10 18 24 21 338 342 8 21 28 43 50 29 15 3 5 14 18
4 358 356 356 355 353 352 354 353 355 357 355 357 356 354 356 359 2 6 4 9 11 16 19 16 13 21 28 28 29 38 61 80 62 43 30 21 21
1 352 349 355 357 354 355 354 353 357 -0 357 354 352 351 356 358 4 11 13 13 12 14 20 20 24 26 28 31 34 33 38 51 57 60 60 68 65